Skip Page Navigation
NASA JPL Caltech
NASA Logo - Jet Propulsion Laboratory + View the NASA Portal
+ Center for Near-Earth Object Studies
JPL Home Earth Solar System Stars & Galaxies Technology
JPL Solar System Dynamics
BODIES ORBITS EPHEMERIDES TOOLS PHYSICAL DATA DISCOVERY FAQ SITE MAP
IMPORTANT: The SSD Announcement email list is now available. Major changes are coming in the near future, including possible hostname and/or URL changes. To be notified of such changes, subscribe to this email list.

Please visit this page for more details.


JPL Small-Body Database Browser
Search: [ help ]  
452008 (2014 OU87)
Classification: Main-belt Asteroid          SPK-ID: 2452008
Ephemeris | Orbit Diagram | Orbital Elements | Mission Design | Physical Parameters | Discovery Circumstances ]

[ show orbit diagram ]
Orbital Elements at Epoch 2458600.5 (2019-Apr-27.0) TDB
Reference: JPL 14 (heliocentric ecliptic J2000)
 Element Value Uncertainty (1-sigma)   Units 
e .03019047685057843 5.5279e-08  
a 2.695787783010132 2.9266e-08 au
q 2.614400664353092 1.4947e-07 au
i 5.675423647974712 6.1093e-06 deg
node 220.2771511565491 5.6258e-05 deg
peri 121.8348647139455 0.00013525 deg
M 349.2116656442656 0.00011852 deg
tp 2458648.948337080589
(2019-Jun-14.44833708)
0.00053215 TDB
period 1616.690841597916
4.43
2.6327e-05
7.208e-08
d
yr
n .2226770825547455 3.6261e-09 deg/d
Q 2.777174901667171 3.0149e-08 au
  Orbit Determination Parameters
   # obs. used (total)      153  
   data-arc span      4783 days (13.10 yr)  
   first obs. used      2006-09-27  
   last obs. used      2019-11-01  
   planetary ephem.      DE431  
   SB-pert. ephem.      SB431-N16  
   condition code      0  
   norm. resid. RMS      .59044  
   source      ORB  
   producer      Otto Matic  
   solution date      2019-Dec-05 02:31:50  

Additional Information
 Earth MOID = 1.61113 au 
 Jupiter MOID = 2.32928 au 
 T_jup = 3.362 
[ show covariance matrix ]

Ephemeris | Orbit Diagram | Orbital Elements | Mission Design | Physical Parameters | Discovery Circumstances ]

Physical Parameter Table
Parameter Symbol Value Units Sigma Reference Notes
absolute magnitude H 17.0   n/a MPO456151  

452008 (2014 OU87)          Discovered 2006-Sep-27 by Mt. Lemmon Survey at Mount Lemmon
Reference: Last Updated: 2015-11-30

Alternate Designations
 2014 OU87 = 2013 GP33 
Ephemeris | Orbit Diagram | Orbital Elements | Mission Design | Physical Parameters | Discovery Circumstances ]
ABOUT SSD CREDITS/AWARDS PRIVACY/COPYRIGHT GLOSSARY LINKS
FirstGov 2019-Dec-07 19:24 UT
(server date/time)  
NASA Home Page
Site Manager:   Ryan S. Park
Webmaster  Alan B. Chamberlin